Probability
0 0 0 0 0 0 0 0 0 0 0 0 0 0 0 0 0 0 0 0 0 0 0 0 0 0 0 0 0 0 0 0 0 0 0 0 0 0 0 0 0 0 0 0
0 0 0 0 0 0 0 0 0 0 0 0 0 0 0 0 0 0 0 0 0 0 0 0 0 0 0 0 0 0 0 0 0 0 0 0 0 0 0 0 0 0 0 0
0 0 0 0 0 0 0 0 0 0 0 0 0 0 0 0 0 0 0 0 0 0 0 0 0 0 0 0 0 0 0 0 0 0 0 0 0 0 0 0 0 0 0 0
0 0 0 0 0 0 0 0 0 0 0 0 0 0 0 0 0 0 0 0 0 0 0 0 0 0 0 0 0 0 0 0 0 0 0 0 0 0 0 0 0 0 0 0
0 0 0 0 0 0 0 0 0 0 0 0 0 0 0 0 0 0 0 0 0 0 0 0 0 0 0 0 0 0 0 0 0 0 0 0 0 0 0 0 0 0 0 0
0 0 0 0 0 0 0 0 0 0 0 0 0 0 0 0 0 0 0 0 0 0 0 0 0 0 0 0 0 0 0 0 0 0 0 0 0 0 0 0 0 0 0 0
0 0 0 0 0 0 0 0 0 0 0 0 0 0 0 0 0 0 0 0 0 0 0 0 0 0 0 0 0 0 0 0 0 0 0 0 0 0 0 0 0 0 0 3
0 0 0 0 0 0 0 0 0 0 0 0 0 0 0 0 0 0 0 0 0 0 0 0 0 0 0 0 0 0 0 0 0 0 0 0 0 0 0 0 0 0 0 0
0 0 0 0 0 0 0 0 0 0 0 0 0 0 0 0 0 0 0 0 0 0 0 0 0 0 0 0 0 0 0 0 0 0 0 0 0 0 0 0 0 0 0 0
0 0 0 0 0 0 0 0 0 0 0 0 0 0 0 0 0 0 0 0 0 0 0 0 0 0 0 0 0 0 0 0 0 0 0 0 0 0 0 0 0 0 0 0
0 0 0 0 0 0 0 0 0 0 0 0 0 0 0 0 0 0 0 0 0 0 0 0 0 0 0 0 0 0 0 0 0 0 0 0 0 0 0 0 0 0 0 0
0 0 0 0 0 0 0 0 0 0 0 0 0 0 0 0 0 0 0 0 0 0 0 0 0 0 0 0 0 0 0 0 0 0 0 0 0 0 0 0 0 0 0 0
0 0 0 0 0 0 0 0 0 0 0 0 0 0 0 0 0 0 0 0 0 0 0 0 0 0 0 0 0 0 0 0 0 0 0 0 0 0 0 0 0 0 0 0
0 0 0 0 0 0 0 0 0 0 0 0 0 0 0 0 0 0 0 0 0 0 0 0 0 0 0 0 0 0 0 0 0 0 0 0 0 0 0 0 0 0 0 0
0 0 0 0 0 0 0 0 0 0 0 0 0 0 0 0 0 0 0 0 0 0 0 0 0 0 0 0 0 0 0 0 0 0 0 0 0 0 0 0 0 0 0 0
0 0 0 0 0 0 0 0 0 0 0 0 0 0 0 0 0 0 0 0 0 0 0 0 0 0 0 0 0 0 0 0 0 0 0 0 0 0 0 0 0 0 0 0
0 0 0 0 0 0 0 0 0 0 0 0 0 0 0 0 0 0 0 0 0 0 0 0 0 0 0 0 0 0 0 0 0 0 0 0 0 0 0 0 0 0 0 0
0 0 0 0 0 0 0 0 0 0 0 0 0 0 0 0 0 0 0 0 0 0 0 0 0 0 0 0 0 0 0 0 0 0 0 0 0 0 0 0 0 0 0 0
0 0 0 0 0 0 0 0 0 0 0 0 0 0 0 0 0 0 0 0 0 0 0 0 0 0 0 0 0 0 0 0 0 0 0 0 0 0 0 0 0 0 0 0
0 0 0 0 0 0 0 0 0 0 0 0 0 0 0 0 0 0 0 0 0 0 0 0 0 0 0 0 0 0 0 0 0 0 0 0 0 0 0 0 0 0 0 0
0 0 0 0 0 0 0 0 0 0 0 0 0 0 0 0 0 0 0 0 0 0 0 0 0 0 0 0 0 0 0 0 0 0 0 0 0 0 0 0 0 0 0 0
0 0 0 0 0 0 0 0 0 0 0 0 0 0 0 0 0 0 0 0 0 0 0 0 0 0 0 0 0 0 0 0 0 0 0 0 0 0 0 0 0 0 0 0
0 0 0 0 0 0 0 0 0 0 0 0 0 0 0 0 0 0 0 0 0 0 0 0 0 0 0 0 0 0 0 0 0 0 0 0 0 0 0 0 0 0 0 0
0 0 0 0 0 0 0 0 0 0 0 0 0 0 0 0 0 0 0 0 0 0 0 0 0 0 0 0 0 0 0 0 0 0 0 0 0 0 0 0 0 0 0 0
0 0 0 0 0 0 0 0 0 0 0 0 0 0 0 0 0 0 0 0 0 0 0 0 0 0 0 0 0 0 0 0 0 0 0 0 0 0 0 0 0 0 0 0
0 0 0 0 0 0 0 0 0 0 0 0 0 0 0 0 0 0 0 0 0 0 0 0 0 0 0 0 0 0 0 0 0 0 0 0 0 0 0 0 0 0 0 0
Height
5893 5895 5894 5893 5893 5891 5889 5887 5884 5882 5879 5876 5872 5869 5865 5861 5857 5853 5850 5846 5842 5838 5834 5829 5825 5821 5818 5814 5812 5809 5808 5806 5805 5804 5804 5803 5804 5804 5806 5807 5809 5810 5812 5815
5891 5891 5891 5891 5889 5888 5886 5884 5881 5878 5875 5872 5868 5865 5862 5858 5855 5851 5847 5843 5839 5835 5830 5826 5821 5817 5814 5810 5807 5805 5803 5801 5799 5798 5797 5796 5796 5796 5797 5798 5799 5801 5803 5805
5888 5890 5889 5888 5887 5885 5883 5881 5878 5875 5872 5869 5866 5863 5860 5856 5853 5849 5845 5841 5837 5833 5828 5824 5819 5815 5811 5807 5804 5801 5799 5796 5794 5792 5791 5790 5789 5789 5789 5790 5790 5792 5793 5795
5886 5886 5886 5886 5884 5883 5881 5878 5875 5872 5869 5866 5864 5862 5858 5855 5851 5848 5844 5840 5836 5831 5827 5822 5818 5813 5809 5805 5801 5798 5795 5793 5790 5788 5786 5785 5784 5783 5782 5783 5783 5784 5785 5787
5884 5884 5884 5884 5882 5880 5878 5876 5873 5870 5868 5865 5862 5860 5858 5854 5850 5847 5843 5839 5834 5830 5826 5821 5817 5812 5808 5803 5800 5796 5793 5790 5787 5785 5782 5781 5779 5778 5777 5777 5777 5777 5778 5780
5882 5883 5882 5882 5880 5879 5877 5875 5872 5869 5867 5864 5862 5859 5857 5853 5850 5846 5842 5838 5834 5830 5825 5820 5816 5811 5807 5802 5798 5795 5792 5788 5785 5782 5779 5777 5775 5773 5772 5771 5771 5771 5771 5772
5881 5881 5881 5880 5879 5878 5876 5874 5872 5869 5866 5864 5861 5859 5857 5853 5850 5846 5842 5838 5834 5830 5825 5820 5816 5811 5807 5802 5798 5795 5791 5787 5783 5780 5777 5775 5772 5770 5768 5767 5766 5765 5765 5766
5879 5880 5880 5879 5878 5877 5875 5874 5872 5870 5867 5864 5862 5859 5857 5853 5850 5846 5843 5839 5835 5831 5826 5821 5817 5812 5808 5803 5799 5795 5791 5787 5783 5780 5776 5773 5770 5768 5765 5763 5762 5761 5760 5760
5878 5879 5879 5878 5877 5877 5875 5873 5872 5870 5867 5865 5863 5860 5857 5854 5851 5848 5844 5841 5836 5832 5827 5823 5818 5814 5809 5805 5800 5796 5792 5788 5784 5780 5777 5773 5769 5766 5763 5761 5759 5757 5756 5756
5878 5879 5879 5878 5878 5877 5876 5874 5873 5871 5868 5866 5864 5861 5859 5855 5852 5849 5846 5842 5838 5834 5829 5825 5820 5816 5811 5807 5802 5798 5794 5790 5786 5781 5777 5773 5769 5765 5762 5759 5756 5754 5753 5752
5878 5879 5879 5879 5878 5877 5876 5875 5873 5871 5869 5867 5865 5865 5860 5857 5854 5851 5847 5844 5840 5836 5831 5827 5822 5818 5814 5809 5804 5800 5796 5791 5787 5783 5779 5774 5770 5766 5762 5759 5756 5753 5750 5748
5878 5879 5879 5879 5878 5877 5877 5875 5874 5873 5871 5868 5866 5867 5861 5858 5855 5852 5849 5846 5842 5838 5833 5829 5825 5820 5816 5811 5807 5803 5798 5794 5789 5785 5780 5775 5771 5767 5763 5759 5755 5752 5749 5746
5879 5880 5880 5880 5881 5879 5877 5876 5875 5874 5872 5870 5868 5869 5863 5860 5857 5854 5851 5847 5844 5840 5835 5831 5827 5823 5819 5814 5810 5805 5801 5797 5792 5787 5782 5777 5773 5768 5764 5760 5756 5752 5748 5745
5879 5880 5881 5881 5880 5879 5878 5877 5876 5874 5873 5871 5869 5867 5864 5862 5859 5856 5853 5849 5846 5842 5838 5834 5830 5826 5821 5817 5813 5808 5804 5800 5795 5790 5785 5780 5775 5770 5765 5761 5757 5752 5748 5744
5880 5881 5880 5881 5880 5879 5879 5878 5877 5875 5874 5872 5871 5868 5866 5863 5860 5858 5854 5851 5848 5844 5840 5836 5832 5828 5824 5820 5815 5811 5807 5802 5798 5793 5788 5783 5778 5773 5768 5763 5758 5753 5749 5744
5880 5881 5881 5881 5881 5880 5880 5879 5877 5876 5875 5873 5871 5869 5867 5864 5862 5859 5856 5853 5849 5846 5842 5838 5835 5831 5827 5823 5818 5814 5809 5805 5800 5796 5791 5786 5781 5776 5770 5765 5760 5755 5750 5746
5881 5882 5882 5882 5881 5881 5881 5880 5878 5877 5876 5874 5872 5871 5868 5866 5863 5860 5857 5854 5851 5848 5844 5840 5837 5833 5829 5825 5821 5816 5812 5808 5803 5799 5794 5789 5784 5778 5773 5768 5763 5757 5752 5748
5882 5882 5882 5882 5883 5882 5883 5880 5879 5878 5876 5875 5873 5871 5869 5866 5864 5861 5858 5855 5852 5849 5846 5842 5838 5835 5831 5827 5823 5819 5815 5810 5806 5801 5797 5792 5787 5782 5776 5771 5766 5760 5755 5750
5881 5882 5882 5882 5882 5882 5881 5880 5879 5878 5876 5875 5873 5871 5869 5867 5864 5862 5859 5856 5853 5850 5847 5843 5840 5836 5832 5829 5825 5821 5817 5813 5808 5804 5799 5795 5790 5785 5780 5774 5769 5764 5758 5753
5880 5881 5881 5881 5881 5881 5881 5880 5878 5878 5876 5874 5873 5871 5869 5867 5865 5863 5859 5856 5853 5850 5847 5844 5841 5837 5834 5830 5826 5822 5819 5815 5811 5806 5802 5797 5793 5788 5783 5778 5773 5768 5762 5757
5879 5879 5880 5880 5879 5879 5879 5878 5878 5878 5876 5873 5871 5870 5868 5866 5864 5862 5859 5856 5853 5850 5847 5844 5841 5838 5834 5831 5827 5823 5820 5816 5812 5808 5804 5800 5795 5791 5786 5782 5777 5772 5767 5762
5877 5877 5877 5877 5877 5879 5877 5876 5876 5875 5872 5871 5869 5868 5866 5864 5862 5860 5858 5855 5852 5850 5847 5844 5841 5838 5834 5831 5828 5824 5821 5817 5813 5810 5806 5802 5798 5794 5789 5785 5780 5776 5771 5766
5874 5875 5875 5875 5876 5875 5873 5873 5872 5871 5870 5868 5867 5865 5864 5862 5860 5858 5856 5853 5851 5848 5845 5843 5840 5837 5834 5831 5828 5824 5821 5818 5814 5811 5807 5803 5799 5796 5792 5788 5784 5779 5775 5771
5870 5870 5871 5871 5871 5870 5870 5869 5868 5867 5866 5865 5863 5862 5860 5859 5857 5855 5853 5851 5848 5846 5843 5841 5838 5835 5833 5830 5827 5824 5821 5818 5814 5811 5808 5804 5801 5797 5794 5790 5786 5782 5778 5775
5866 5866 5866 5866 5866 5866 5865 5864 5864 5863 5862 5861 5860 5858 5857 5855 5853 5851 5849 5847 5845 5843 5840 5838 5836 5833 5830 5828 5825 5822 5819 5817 5814 5811 5808 5804 5801 5798 5794 5791 5788 5785 5781 5778
5860 5861 5861 5861 5861 5861 5860 5859 5859 5858 5857 5856 5855 5853 5852 5850 5849 5847 5845 5843 5841 5839 5836 5834 5832 5830 5827 5825 5822 5820 5817 5815 5812 5809 5807 5804 5801 5798 5795 5792 5789 5786 5783 5780
Wind_Speed
19 18 18 18 19 20 20 21 23 23 24 24 23 23 23 22 22 22 22 23 23 24 24 24 24 23 23 23 22 22 22 23 23 24 25 26 27 29 30 32 33 36 37 38
18 17 17 17 18 18 19 21 22 22 22 22 21 20 19 19 20 20 21 21 21 22 22 22 21 21 20 19 19 18 18 19 20 21 22 23 24 25 27 28 30 33 35 37
16 15 15 15 16 17 18 20 20 20 20 19 18 17 17 17 18 18 19 19 19 20 20 20 20 19 19 18 17 17 17 17 18 18 19 19 20 21 22 24 25 28 30 33
14 14 13 14 14 16 17 18 18 17 17 16 16 15 15 16 16 17 17 18 18 19 20 20 20 19 18 18 17 17 16 16 16 16 17 17 18 19 20 21 22 24 26 29
12 11 11 11 12 13 14 15 15 14 14 13 13 14 14 14 15 16 17 18 18 19 19 20 20 19 19 18 17 17 17 16 16 15 15 15 16 17 18 19 20 22 24 26
10 9 8 8 9 10 12 13 12 12 12 12 13 13 13 14 15 16 17 18 18 19 20 20 20 20 20 19 18 17 17 17 16 15 15 14 14 14 15 16 17 19 21 23
8 6 5 5 7 9 10 11 10 10 11 11 12 13 13 14 16 17 18 18 19 20 20 21 20 21 21 20 18 18 18 18 16 15 15 14 13 13 14 14 15 17 19 20
6 3 3 3 5 7 8 9 9 9 10 11 12 12 13 14 16 17 18 18 19 20 20 20 20 21 21 20 20 19 19 19 18 16 16 14 13 13 13 13 14 15 16 17
4 2 0 2 4 5 6 7 8 9 9 10 12 12 13 15 16 16 17 18 20 21 21 21 21 21 22 21 20 20 19 19 18 18 18 16 15 14 13 12 12 12 13 14
4 2 1 2 3 5 6 7 8 9 10 11 12 13 14 15 15 16 17 19 20 21 21 21 21 22 22 21 21 20 20 20 19 19 19 18 17 15 14 13 12 11 11 12
5 3 3 3 4 5 5 6 7 8 10 11 12 13 14 15 15 16 17 19 20 21 21 21 22 22 23 23 22 21 21 21 21 21 20 20 18 17 16 15 13 12 11 12
5 4 4 3 4 5 5 6 7 8 9 11 12 13 14 14 15 16 17 18 19 20 21 21 21 22 22 23 23 22 23 23 22 22 22 21 19 18 17 16 15 14 12 11
5 5 4 4 4 5 5 6 7 8 9 10 11 12 13 14 15 16 17 18 19 19 20 21 21 21 22 22 22 23 23 24 24 23 23 23 22 20 19 18 17 16 14 12
6 5 4 4 5 5 5 5 6 7 8 9 11 12 13 14 15 16 16 17 18 19 19 20 21 21 22 22 22 22 23 24 24 25 25 24 24 22 21 20 20 18 16 14
5 4 4 4 4 5 5 6 6 7 8 9 10 11 12 13 14 15 16 17 17 18 19 20 20 21 22 22 22 22 22 23 24 25 25 25 25 24 23 22 21 20 19 17
5 4 4 4 4 4 5 5 6 7 8 9 10 11 12 13 14 15 15 16 17 18 18 19 20 20 21 22 22 23 23 23 24 24 25 25 25 26 25 24 23 22 21 19
4 3 3 3 3 3 4 4 5 7 8 9 10 11 12 12 13 14 15 16 17 17 18 18 19 19 20 21 22 23 23 23 24 24 24 25 26 26 26 26 25 23 22 21
3 2 1 1 1 2 3 4 5 6 7 8 9 10 11 12 13 14 15 15 16 17 17 18 18 19 19 20 21 22 22 23 23 24 24 24 25 26 27 26 26 26 24 22
3 3 2 1 1 2 3 4 5 6 7 8 9 10 11 12 12 13 14 15 15 16 17 17 18 18 18 19 19 20 21 22 22 23 23 24 24 25 26 27 27 27 26 24
5 5 4 4 4 4 4 5 5 6 7 8 9 10 11 11 12 13 13 14 15 15 16 17 17 17 18 18 18 19 20 20 21 21 22 23 24 24 25 26 27 27 27 26
8 7 7 7 7 7 7 7 7 8 9 9 10 10 11 12 12 13 13 14 14 15 16 16 17 17 17 18 18 18 18 19 19 20 21 21 22 23 24 25 25 26 26 26
11 10 10 10 10 11 10 10 10 11 11 12 12 12 13 13 13 14 14 15 15 15 16 16 16 17 17 17 17 18 18 18 18 19 19 20 20 21 22 23 23 24 25 25
13 13 13 13 13 13 13 13 13 14 14 14 15 15 15 15 15 15 16 16 16 16 17 17 17 17 17 17 17 17 17 17 17 18 18 18 19 19 20 20 21 22 23 23
16 16 16 16 16 16 15 16 16 16 17 17 17 17 17 17 17 17 17 17 18 18 18 18 18 18 18 18 18 18 18 18 17 18 18 18 18 18 18 18 19 19 20 20
18 18 18 18 18 18 18 18 18 18 18 18 18 19 19 19 19 20 20 20 20 20 20 19 19 19 19 19 19 18 18 18 18 18 18 18 17 17 17 17 16 16 17 17
20 20 20 20 20 20 20 21 21 21 21 21 21 21 21 22 22 22 22 22 22 22 22 22 21 21 21 21 20 20 20 19 19 19 18 18 18 17 17 16 16 15 14 14
Wind_Direction
253 262 270 279 287 294 300 305 309 313 316 317 319 320 321 321 321 322 322 323 323 322 321 319 317 315 312 308 301 295 291 289 286 282 278 275 270 265 260 256 253 251 249 247
251 261 271 281 288 295 303 308 312 316 318 321 323 324 326 324 325 326 326 327 327 328 328 327 326 324 323 320 315 309 302 297 293 289 284 279 274 269 265 260 256 252 249 247
249 260 271 280 289 298 307 313 317 320 322 324 327 331 331 330 330 330 331 332 334 338 339 338 337 335 333 330 327 322 315 308 303 297 292 286 279 273 267 263 259 254 250 247
246 258 270 283 295 306 313 319 322 324 326 331 335 339 337 337 337 338 341 343 345 347 347 347 348 347 343 339 334 330 326 320 314 308 300 293 286 279 273 268 262 256 252 250
243 258 274 289 304 315 322 327 329 332 337 342 347 350 352 349 349 350 351 352 353 353 354 354 353 352 351 347 344 341 337 332 327 322 314 305 295 284 279 273 267 261 255 252
238 256 278 299 314 325 332 336 339 344 350 357 360 1 1 360 0 1 1 360 359 359 359 360 359 358 356 354 352 350 349 345 339 332 324 317 310 298 289 281 273 267 261 256
234 256 283 311 326 334 341 346 351 360 6 7 5 7 7 6 8 8 8 7 6 6 6 5 5 5 5 4 2 360 357 355 351 345 338 329 322 313 303 292 282 275 269 262
227 243 289 329 341 347 355 1 7 11 12 12 13 13 11 12 12 12 12 11 10 10 10 11 11 11 11 10 9 7 6 5 2 358 353 346 337 328 317 305 292 284 276 268
198 206 317 6 6 10 14 17 17 20 24 26 25 23 20 18 17 17 16 15 14 15 16 16 17 16 15 14 13 12 12 11 10 7 4 0 353 346 338 325 311 298 286 275
170 157 98 57 41 38 32 30 31 33 35 33 30 26 22 20 20 20 18 17 17 19 19 19 20 20 19 18 18 17 16 15 14 11 9 6 3 359 353 344 331 317 302 288
155 139 110 84 62 53 45 42 40 39 35 32 29 27 23 23 23 21 20 19 18 19 20 21 22 23 22 22 22 22 21 19 17 15 13 12 10 6 3 358 351 340 323 305
143 130 112 90 73 64 56 46 40 37 35 31 31 31 28 26 24 21 19 18 19 20 20 21 22 22 23 23 24 25 24 23 21 18 16 15 13 11 9 7 2 356 347 334
139 127 111 93 78 67 57 46 41 38 34 31 30 30 26 25 23 21 20 20 20 21 22 23 23 23 24 24 25 25 25 25 24 22 20 18 18 17 15 14 9 2 356 349
135 123 107 90 78 68 57 46 39 35 31 29 28 26 23 22 20 20 20 20 20 21 23 24 25 26 26 26 26 25 25 25 24 24 23 22 22 21 19 17 14 11 7 2
134 121 108 92 76 65 55 46 37 31 27 25 23 21 21 20 20 21 20 19 20 21 22 23 25 26 26 26 26 26 25 24 24 24 25 25 25 23 21 19 19 18 17 15
131 121 109 96 79 64 51 42 34 27 22 20 20 20 19 20 20 20 19 18 19 20 21 22 23 25 25 26 26 26 25 24 24 24 25 25 25 24 23 22 21 19 19 18
136 127 113 93 78 65 48 34 27 23 20 19 18 18 17 17 16 15 15 15 15 17 18 19 20 21 22 23 23 23 24 24 23 23 24 25 25 24 24 23 22 21 20 20
168 164 140 90 52 40 30 24 18 14 13 14 15 14 13 12 10 9 9 10 12 13 14 15 16 16 17 18 19 20 21 21 22 22 22 23 24 24 24 24 24 23 23 24
217 226 239 270 311 336 349 352 354 356 360 1 4 5 5 5 5 6 5 4 5 7 8 9 9 10 12 13 15 16 17 18 19 20 21 22 23 23 23 24 24 25 26 27
240 249 258 268 279 290 307 315 325 331 336 341 345 349 352 353 354 356 356 357 358 360 1 3 3 4 5 7 9 10 12 14 15 16 18 19 21 22 23 24 25 26 27 28
249 255 261 269 275 280 289 295 302 307 315 319 324 328 332 337 340 342 344 347 349 352 354 355 357 358 359 1 2 4 5 7 9 12 14 16 18 20 21 23 25 26 27 29
253 258 264 271 275 279 284 287 290 294 299 304 309 314 318 322 326 330 333 335 337 340 343 345 347 350 351 353 355 357 359 1 3 5 8 11 14 16 18 20 22 24 26 28
255 260 265 270 275 278 280 282 284 287 291 296 300 304 307 311 314 318 321 325 328 330 332 334 336 338 341 344 346 349 351 354 356 358 1 4 7 9 12 16 18 20 23 26
258 261 265 268 271 274 277 279 281 284 288 292 295 298 301 304 307 310 312 315 318 321 324 326 327 328 330 333 335 338 341 344 346 349 352 354 357 0 4 7 11 14 18 21
259 261 264 267 269 272 274 277 280 282 286 289 292 295 297 300 302 305 307 309 311 313 315 317 319 321 322 324 325 327 330 333 335 338 342 345 348 350 353 356 0 4 9 14
260 262 264 267 269 271 274 276 279 282 284 287 289 292 294 296 298 300 302 304 305 306 308 309 310 312 314 315 317 319 321 323 325 328 331 333 336 339 341 344 348 351 356 1